CZ-3B R/B, 63663

Orbit data source: Space-Track

CZ-3B R/B, 63663 is space debris in HEO originally from a launch on Sun, 27 Apr 2025 UTC launched from the Xichang Space Center, China (XSC). Debris objects in space refer to the collection of defunct objects orbiting the Earth. Examples of debris include non-operational satellites, rocket bodies, and fragments generated from explosions, collisions, or faulty payload assembly.

Loading next visibility...
Identifier
63663, 2025-084B
Orbit
HEO
Country
Flag of CNCN / PRC
Related business
Manufacturer
CALT
Mission
Spacecraft
Bus & Motor
CZ-3A STAGE 3, Unknown motor
Mass
~2,800 kg wet, ~2,800 kg dry
Launch date (UTC)
2025-04-27 (9 months ago)
Launch vehicle
Unknown
Launch site
Xichang Space Center, China (XSC)
Object type
Payload
Rocket body
Debris
Shape & HBR
Cyl + 1 Nozzle, 4.2 m
Radar Cross Section
32.704 m², Large (>1 m²)

Expand to show TLE details & history
Last TLE update: 10 hours ago

TLE from 10 hours ago
0 CZ-3B R/B
1 63663U 25084B   26037.08779375  .00062858  97620-6  29727-2 0  9995
2 63663  27.3634 335.0875 7105862  12.6924 358.3359  2.54164166  7047
Epoch: 2026-02-06T02:06Z
TLE epoch observation values (Epoch: 2026-02-06T02:06:25.379Z)
Latitude
0.00013°
Longitude
167.26031°
Altitude
240.19 km
Speed
10.143 km/s
True Right ascension
22h 20m 23s
True Declination
0° 00' 00"
Sunlit
Object was in daylight at epoch
Visualization orbit readout
Latitude
Unknown
Longitude
Unknown
Altitude
Unknown
Speed
Unknown
Apparent Right ascension
Unknown
Apparent Declination
Unknown
Sunlit
N/A
Visualization observer readout
Local Sidereal Time
14:11:02
Azimuth
Unknown
Elevation
Unknown
Doppler factor
Unknown
Orbital elements
Apogee altitude
32,425.918 km
Perigee altitude
187.115 km
Semi-major axis
22,684.653 km
Eccentricity
0.71059
Inclination
27.3634°
RAAN
335.0875°
Arg. of periapsis
12.6924°
True anomaly
346.13445°
Mean anomaly
358.3359°
Eccentric anomaly
354.2735°
Mean motion
0.63525 °/min
Orbital period
566.71 mins
BSTAR
0.0029727
Loading maneuver chart data...
Computing Atmospheric mass density...
Loading historical data...
Loading historical data...
Loading historical data...
Loading historical data...
Loading historical data...
Loading historical data...
Loading historical data...
Other satellites on launch #84 in the year 2025 (2025-04-27 UTC)

Documentation

Showing up to 5 results
|